contact:dominique.lefevre@mio.osupytheas.fr, maurice.libes@osupytheas.fr, didier.mallarino@osupytheas.fr
Project:EMSO http://www.emso-fr.org/EMSO-France
Depth: 2436.0 m
Title:EMSO Ligure Ouest : Data MII capteur MICROCAT
DateTime_Computer,Latitude,Longitude,Temperature,Conductivity,Pressure,DateTime_Instrument
DateTime_Computer,Latitude,Longitude,degC,S m-1,dbar,DateTime_Instrument
2022-06-19T00:00:49Z,42.805,6.029,13.3012,4.60079,2470.624,2022-6-19T02:02:33Z
2022-06-19T00:03:52Z,42.805,6.029,13.3025,4.60097,2470.624,2022-6-19T02:05:36Z
2022-06-19T00:06:56Z,42.805,6.029,13.3016,4.60084,2470.646,2022-6-19T02:08:39Z
2022-06-19T00:09:59Z,42.805,6.029,13.3023,4.60117,2470.646,2022-6-19T02:11:42Z
2022-06-19T00:13:02Z,42.805,6.029,13.3015,4.60098,2470.624,2022-6-19T02:14:46Z
2022-06-19T00:16:05Z,42.805,6.029,13.3018,4.60108,2470.614,2022-6-19T02:17:49Z
2022-06-19T00:19:08Z,42.805,6.029,13.3019,4.60099,2470.637,2022-6-19T02:20:52Z
2022-06-19T00:22:11Z,42.805,6.029,13.3021,4.60086,2470.624,2022-6-19T02:23:55Z
2022-06-19T00:25:14Z,42.805,6.029,13.3017,4.60093,2470.624,2022-6-19T02:26:58Z
2022-06-19T00:28:17Z,42.805,6.029,13.3018,4.60118,2470.6,2022-6-19T02:30:01Z
2022-06-19T00:31:21Z,42.805,6.029,13.3014,4.60106,2470.624,2022-6-19T02:33:04Z
2022-06-19T00:34:24Z,42.805,6.029,13.3019,4.60107,2470.661,2022-6-19T02:36:07Z
2022-06-19T00:37:27Z,42.805,6.029,13.3023,4.60106,2470.637,2022-6-19T02:39:11Z
2022-06-19T00:40:30Z,42.805,6.029,13.3020,4.60097,2470.624,2022-6-19T02:42:14Z
2022-06-19T00:43:33Z,42.805,6.029,13.3019,4.60089,2470.6,2022-6-19T02:45:17Z
2022-06-19T00:46:36Z,42.805,6.029,13.3033,4.60104,2470.577,2022-6-19T02:48:20Z
2022-06-19T00:49:39Z,42.805,6.029,13.3021,4.60122,2470.614,2022-6-19T02:51:23Z
2022-06-19T00:52:42Z,42.805,6.029,13.3018,4.60110,2470.624,2022-6-19T02:54:26Z
2022-06-19T00:55:45Z,42.805,6.029,13.3024,4.60104,2470.6,2022-6-19T02:57:29Z
2022-06-19T00:58:49Z,42.805,6.029,13.3026,4.60125,2470.591,2022-6-19T03:00:32Z
2022-06-19T01:01:52Z,42.805,6.029,13.3026,4.60137,2470.6,2022-6-19T03:03:36Z
2022-06-19T01:04:55Z,42.805,6.029,13.3033,4.60113,2470.624,2022-6-19T03:06:39Z
2022-06-19T01:07:58Z,42.805,6.029,13.3026,4.60125,2470.591,2022-6-19T03:09:42Z
2022-06-19T01:11:01Z,42.805,6.029,13.3018,4.60099,2470.591,2022-6-19T03:12:45Z
2022-06-19T01:14:04Z,42.805,6.029,13.3027,4.60087,2470.577,2022-6-19T03:15:48Z
2022-06-19T01:17:07Z,42.805,6.029,13.3030,4.60107,2470.577,2022-6-19T03:18:51Z
2022-06-19T01:20:10Z,42.805,6.029,13.3014,4.60108,2470.577,2022-6-19T03:21:54Z
2022-06-19T01:23:14Z,42.805,6.029,13.3018,4.60117,2470.614,2022-6-19T03:24:57Z
2022-06-19T01:26:17Z,42.805,6.029,13.3050,4.60127,2470.567,2022-6-19T03:28:00Z
2022-06-19T01:29:20Z,42.805,6.029,13.3033,4.60084,2470.553,2022-6-19T03:31:04Z
2022-06-19T01:32:23Z,42.805,6.029,13.3038,4.60111,2470.53,2022-6-19T03:34:07Z
2022-06-19T01:35:26Z,42.805,6.029,13.3046,4.60086,2470.553,2022-6-19T03:37:10Z
2022-06-19T01:38:29Z,42.805,6.029,13.3038,4.60107,2470.591,2022-6-19T03:40:13Z
2022-06-19T01:41:32Z,42.805,6.029,13.3061,4.60078,2470.591,2022-6-19T03:43:16Z
2022-06-19T01:44:35Z,42.805,6.029,13.3037,4.60062,2470.567,2022-6-19T03:46:19Z
2022-06-19T01:47:39Z,42.805,6.029,13.3033,4.60070,2470.567,2022-6-19T03:49:22Z
2022-06-19T01:50:42Z,42.805,6.029,13.3029,4.60084,2470.567,2022-6-19T03:52:25Z
2022-06-19T01:53:45Z,42.805,6.029,13.3034,4.60089,2470.591,2022-6-19T03:55:29Z
2022-06-19T01:56:48Z,42.805,6.029,13.3014,4.60090,2470.53,2022-6-19T03:58:32Z
2022-06-19T01:59:51Z,42.805,6.029,13.3021,4.60089,2470.567,2022-6-19T04:01:35Z
2022-06-19T02:02:54Z,42.805,6.029,13.3029,4.60108,2470.567,2022-6-19T04:04:38Z
2022-06-19T02:05:57Z,42.805,6.029,13.3022,4.60114,2470.553,2022-6-19T04:07:41Z
2022-06-19T02:09:00Z,42.805,6.029,13.3034,4.60111,2470.591,2022-6-19T04:10:44Z
2022-06-19T02:12:04Z,42.805,6.029,13.3019,4.60115,2470.544,2022-6-19T04:13:47Z
2022-06-19T02:15:07Z,42.805,6.029,13.3021,4.60115,2470.53,2022-6-19T04:16:50Z
2022-06-19T02:18:10Z,42.805,6.029,13.3021,4.60119,2470.544,2022-6-19T04:19:54Z
2022-06-19T02:21:13Z,42.805,6.029,13.3019,4.60134,2470.53,2022-6-19T04:22:57Z
2022-06-19T02:24:16Z,42.805,6.029,13.3024,4.60134,2470.52,2022-6-19T04:26:00Z
2022-06-19T02:27:19Z,42.805,6.029,13.3043,4.60099,2470.544,2022-6-19T04:29:03Z
2022-06-19T02:30:22Z,42.805,6.029,13.3036,4.60145,2470.544,2022-6-19T04:32:06Z
2022-06-19T02:33:25Z,42.805,6.029,13.3043,4.60154,2470.53,2022-6-19T04:35:09Z
2022-06-19T02:36:28Z,42.805,6.029,13.3026,4.60144,2470.507,2022-6-19T04:38:12Z
2022-06-19T02:39:32Z,42.805,6.029,13.3051,4.60147,2470.52,2022-6-19T04:41:15Z
2022-06-19T02:42:35Z,42.805,6.029,13.3034,4.60147,2470.507,2022-6-19T04:44:19Z
2022-06-19T02:45:38Z,42.805,6.029,13.3042,4.60137,2470.52,2022-6-19T04:47:22Z
2022-06-19T02:48:41Z,42.805,6.029,13.3044,4.60100,2470.52,2022-6-19T04:50:25Z
2022-06-19T02:51:44Z,42.805,6.029,13.3026,4.60091,2470.53,2022-6-19T04:53:28Z
2022-06-19T02:54:47Z,42.805,6.029,13.3024,4.60089,2470.507,2022-6-19T04:56:31Z
2022-06-19T02:57:50Z,42.805,6.029,13.3038,4.60081,2470.52,2022-6-19T04:59:34Z
2022-06-19T03:00:53Z,42.805,6.029,13.3029,4.60087,2470.52,2022-6-19T05:02:37Z
2022-06-19T03:03:57Z,42.805,6.029,13.3033,4.60110,2470.507,2022-6-19T05:05:40Z
2022-06-19T03:07:00Z,42.805,6.029,13.3036,4.60090,2470.52,2022-6-19T05:08:44Z
2022-06-19T03:10:03Z,42.805,6.029,13.3031,4.60081,2470.544,2022-6-19T05:11:47Z
2022-06-19T03:13:06Z,42.805,6.029,13.3024,4.60075,2470.497,2022-6-19T05:14:50Z
2022-06-19T03:16:09Z,42.805,6.029,13.3026,4.60072,2470.46,2022-6-19T05:17:53Z
2022-06-19T03:19:12Z,42.805,6.029,13.3028,4.60079,2470.53,2022-6-19T05:20:56Z
2022-06-19T03:22:15Z,42.805,6.029,13.3029,4.60102,2470.483,2022-6-19T05:23:59Z
2022-06-19T03:25:18Z,42.805,6.029,13.3035,4.60063,2470.497,2022-6-19T05:27:02Z
2022-06-19T03:28:22Z,42.805,6.029,13.3042,4.60127,2470.474,2022-6-19T05:30:05Z
2022-06-19T03:31:25Z,42.805,6.029,13.3037,4.60078,2470.483,2022-6-19T05:33:08Z
2022-06-19T03:34:28Z,42.805,6.029,13.3067,4.60077,2470.497,2022-6-19T05:36:12Z
2022-06-19T03:37:31Z,42.805,6.029,13.3068,4.60069,2470.483,2022-6-19T05:39:15Z
2022-06-19T03:40:34Z,42.805,6.029,13.3076,4.60051,2470.483,2022-6-19T05:42:18Z
2022-06-19T03:43:37Z,42.805,6.029,13.3021,4.60050,2470.483,2022-6-19T05:45:21Z
2022-06-19T03:46:40Z,42.805,6.029,13.3051,4.60048,2470.497,2022-6-19T05:48:24Z
2022-06-19T03:49:43Z,42.805,6.029,13.3029,4.60079,2470.53,2022-6-19T05:51:27Z
2022-06-19T03:52:47Z,42.805,6.029,13.3053,4.60077,2470.474,2022-6-19T05:54:30Z
2022-06-19T03:55:50Z,42.805,6.029,13.3018,4.60079,2470.497,2022-6-19T05:57:33Z
2022-06-19T03:58:53Z,42.805,6.029,13.3021,4.60110,2470.497,2022-6-19T06:00:37Z
2022-06-19T04:01:56Z,42.805,6.029,13.3075,4.60069,2470.497,2022-6-19T06:03:40Z
2022-06-19T04:04:59Z,42.805,6.029,13.3006,4.60091,2470.483,2022-6-19T06:06:43Z
2022-06-19T04:08:02Z,42.805,6.029,13.3008,4.60077,2470.46,2022-6-19T06:09:46Z
2022-06-19T04:11:05Z,42.805,6.029,13.3007,4.60062,2470.46,2022-6-19T06:12:49Z
2022-06-19T04:14:08Z,42.805,6.029,13.3009,4.60039,2470.474,2022-6-19T06:15:52Z
2022-06-19T04:17:11Z,42.805,6.029,13.3004,4.60039,2470.46,2022-6-19T06:18:55Z
2022-06-19T04:20:15Z,42.805,6.029,13.3001,4.60039,2470.46,2022-6-19T06:21:58Z
2022-06-19T04:23:18Z,42.805,6.029,13.3006,4.60039,2470.507,2022-6-19T06:25:02Z
2022-06-19T04:26:21Z,42.805,6.029,13.3002,4.60042,2470.45,2022-6-19T06:28:05Z
2022-06-19T04:29:24Z,42.805,6.029,13.3005,4.60041,2470.437,2022-6-19T06:31:08Z
2022-06-19T04:32:27Z,42.805,6.029,13.3003,4.60038,2470.474,2022-6-19T06:34:11Z
2022-06-19T04:35:30Z,42.805,6.029,13.3006,4.60040,2470.46,2022-6-19T06:37:14Z
2022-06-19T04:38:33Z,42.805,6.029,13.3004,4.60044,2470.437,2022-6-19T06:40:17Z
2022-06-19T04:41:36Z,42.805,6.029,13.3001,4.60041,2470.474,2022-6-19T06:43:20Z
2022-06-19T04:44:40Z,42.805,6.029,13.3001,4.60044,2470.46,2022-6-19T06:46:23Z
2022-06-19T04:47:43Z,42.805,6.029,13.3000,4.60039,2470.437,2022-6-19T06:49:26Z
2022-06-19T04:50:46Z,42.805,6.029,13.3006,4.60039,2470.46,2022-6-19T06:52:30Z
2022-06-19T04:53:49Z,42.805,6.029,13.3012,4.60042,2470.46,2022-6-19T06:55:33Z
2022-06-19T04:56:52Z,42.805,6.029,13.3007,4.60039,2470.46,2022-6-19T06:58:36Z
2022-06-19T04:59:55Z,42.805,6.029,13.3009,4.60039,2470.45,2022-6-19T07:01:39Z
2022-06-19T05:02:58Z,42.805,6.029,13.3007,4.60039,2470.427,2022-6-19T07:04:42Z
2022-06-19T05:06:01Z,42.805,6.029,13.3009,4.60039,2470.474,2022-6-19T07:07:45Z
2022-06-19T05:09:05Z,42.805,6.029,13.3001,4.60039,2470.46,2022-6-19T07:10:48Z
2022-06-19T05:12:08Z,42.805,6.029,13.3006,4.60046,2470.46,2022-6-19T07:13:51Z
2022-06-19T05:15:11Z,42.805,6.029,13.3006,4.60049,2470.437,2022-6-19T07:16:55Z
2022-06-19T05:18:14Z,42.805,6.029,13.3004,4.60049,2470.427,2022-6-19T07:19:58Z
2022-06-19T05:21:17Z,42.805,6.029,13.3004,4.60041,2470.437,2022-6-19T07:23:01Z
2022-06-19T05:24:20Z,42.805,6.029,13.3006,4.60035,2470.45,2022-6-19T07:26:04Z
2022-06-19T05:27:23Z,42.805,6.029,13.3007,4.60036,2470.45,2022-6-19T07:29:07Z
2022-06-19T05:30:26Z,42.805,6.029,13.3005,4.60038,2470.413,2022-6-19T07:32:10Z
2022-06-19T05:33:29Z,42.805,6.029,13.3009,4.60035,2470.39,2022-6-19T07:35:13Z
2022-06-19T05:36:33Z,42.805,6.029,13.3004,4.60036,2470.45,2022-6-19T07:38:16Z
2022-06-19T05:39:36Z,42.805,6.029,13.3002,4.60039,2470.437,2022-6-19T07:41:20Z
2022-06-19T05:42:39Z,42.805,6.029,13.3008,4.60042,2470.427,2022-6-19T07:44:23Z
2022-06-19T05:45:42Z,42.805,6.029,13.3014,4.60043,2470.46,2022-6-19T07:47:26Z
2022-06-19T05:48:45Z,42.805,6.029,13.3012,4.60046,2470.413,2022-6-19T07:50:29Z
2022-06-19T05:51:48Z,42.805,6.029,13.3004,4.60040,2470.413,2022-6-19T07:53:32Z
2022-06-19T05:54:51Z,42.805,6.029,13.3005,4.60037,2470.413,2022-6-19T07:56:35Z
2022-06-19T05:57:54Z,42.805,6.029,13.3006,4.60034,2470.45,2022-6-19T07:59:38Z
2022-06-19T06:00:58Z,42.805,6.029,13.2999,4.60039,2470.427,2022-6-19T08:02:41Z
2022-06-19T06:04:01Z,42.805,6.029,13.3005,4.60039,2470.437,2022-6-19T08:05:44Z
2022-06-19T06:07:04Z,42.805,6.029,13.3006,4.60042,2470.45,2022-6-19T08:08:48Z
2022-06-19T06:10:07Z,42.805,6.029,13.3007,4.60036,2470.413,2022-6-19T08:11:51Z
2022-06-19T06:13:10Z,42.805,6.029,13.3002,4.60036,2470.45,2022-6-19T08:14:54Z
2022-06-19T06:16:13Z,42.805,6.029,13.3009,4.60039,2470.413,2022-6-19T08:17:57Z
2022-06-19T06:19:16Z,42.805,6.029,13.3005,4.60037,2470.404,2022-6-19T08:21:00Z
2022-06-19T06:22:19Z,42.805,6.029,13.3006,4.60043,2470.427,2022-6-19T08:24:03Z
2022-06-19T06:25:23Z,42.805,6.029,13.3001,4.60043,2470.404,2022-6-19T08:27:06Z
2022-06-19T06:28:26Z,42.805,6.029,13.3000,4.60039,2470.46,2022-6-19T08:30:09Z
2022-06-19T06:31:29Z,42.805,6.029,13.3005,4.60037,2470.423,2022-6-19T08:33:13Z
2022-06-19T06:34:32Z,42.805,6.029,13.3005,4.60037,2470.413,2022-6-19T08:36:16Z
2022-06-19T06:37:35Z,42.805,6.029,13.3003,4.60042,2470.45,2022-6-19T08:39:19Z
2022-06-19T06:40:38Z,42.805,6.029,13.3002,4.60046,2470.427,2022-6-19T08:42:22Z
2022-06-19T06:43:41Z,42.805,6.029,13.3006,4.60036,2470.474,2022-6-19T08:45:25Z
2022-06-19T06:46:44Z,42.805,6.029,13.3004,4.60044,2470.437,2022-6-19T08:48:28Z
2022-06-19T06:49:48Z,42.805,6.029,13.3000,4.60038,2470.45,2022-6-19T08:51:31Z
2022-06-19T06:52:51Z,42.805,6.029,13.3004,4.60042,2470.474,2022-6-19T08:54:34Z
2022-06-19T06:55:54Z,42.805,6.029,13.3005,4.60051,2470.45,2022-6-19T08:57:38Z
2022-06-19T06:58:57Z,42.805,6.029,13.3006,4.60040,2470.437,2022-6-19T09:00:41Z
2022-06-19T07:02:00Z,42.805,6.029,13.3000,4.60037,2470.437,2022-6-19T09:03:44Z
2022-06-19T07:05:03Z,42.805,6.029,13.3004,4.60036,2470.45,2022-6-19T09:06:47Z
2022-06-19T07:08:06Z,42.805,6.029,13.3004,4.60037,2470.437,2022-6-19T09:09:50Z
2022-06-19T07:11:09Z,42.805,6.029,13.3005,4.60036,2470.437,2022-6-19T09:12:53Z
2022-06-19T07:14:12Z,42.805,6.029,13.3004,4.60035,2470.437,2022-6-19T09:15:56Z
2022-06-19T07:17:16Z,42.805,6.029,13.3007,4.60035,2470.413,2022-6-19T09:18:59Z
2022-06-19T07:20:19Z,42.805,6.029,13.3003,4.60038,2470.437,2022-6-19T09:22:03Z
2022-06-19T07:23:22Z,42.805,6.029,13.3004,4.60034,2470.474,2022-6-19T09:25:06Z
2022-06-19T07:26:25Z,42.805,6.029,13.3004,4.60037,2470.423,2022-6-19T09:28:09Z
2022-06-19T07:29:28Z,42.805,6.029,13.3005,4.60036,2470.437,2022-6-19T09:31:12Z
2022-06-19T07:32:31Z,42.805,6.029,13.3002,4.60034,2470.437,2022-6-19T09:34:15Z
2022-06-19T07:35:34Z,42.805,6.029,13.3005,4.60033,2470.437,2022-6-19T09:37:18Z
2022-06-19T07:38:37Z,42.805,6.029,13.3004,4.60035,2470.45,2022-6-19T09:40:21Z
2022-06-19T07:41:41Z,42.805,6.029,13.3004,4.60036,2470.45,2022-6-19T09:43:24Z
2022-06-19T07:44:44Z,42.805,6.029,13.3004,4.60035,2470.46,2022-6-19T09:46:27Z
2022-06-19T07:47:47Z,42.805,6.029,13.3004,4.60036,2470.46,2022-6-19T09:49:31Z
2022-06-19T07:50:50Z,42.805,6.029,13.3005,4.60035,2470.46,2022-6-19T09:52:34Z
2022-06-19T07:53:53Z,42.805,6.029,13.3002,4.60033,2470.46,2022-6-19T09:55:37Z
2022-06-19T07:56:56Z,42.805,6.029,13.3001,4.60034,2470.474,2022-6-19T09:58:40Z
2022-06-19T07:59:59Z,42.805,6.029,13.3006,4.60033,2470.474,2022-6-19T10:01:43Z
2022-06-19T08:03:02Z,42.805,6.029,13.3002,4.60035,2470.474,2022-6-19T10:04:46Z
2022-06-19T08:06:06Z,42.805,6.029,13.3004,4.60035,2470.474,2022-6-19T10:07:49Z
2022-06-19T08:09:09Z,42.805,6.029,13.2998,4.60041,2470.474,2022-6-19T10:10:52Z
2022-06-19T08:12:12Z,42.805,6.029,13.3002,4.60033,2470.474,2022-6-19T10:13:56Z
2022-06-19T08:15:15Z,42.805,6.029,13.3004,4.60033,2470.46,2022-6-19T10:16:59Z
2022-06-19T08:18:18Z,42.805,6.029,13.3005,4.60034,2470.437,2022-6-19T10:20:02Z
2022-06-19T08:21:21Z,42.805,6.029,13.3005,4.60034,2470.497,2022-6-19T10:23:05Z
2022-06-19T08:24:24Z,42.805,6.029,13.3003,4.60035,2470.46,2022-6-19T10:26:08Z
2022-06-19T08:27:27Z,42.805,6.029,13.3009,4.60034,2470.474,2022-6-19T10:29:11Z
2022-06-19T08:30:31Z,42.805,6.029,13.3003,4.60035,2470.46,2022-6-19T10:32:14Z
2022-06-19T08:33:34Z,42.805,6.029,13.3004,4.60036,2470.483,2022-6-19T10:35:17Z
2022-06-19T08:36:37Z,42.805,6.029,13.3004,4.60037,2470.53,2022-6-19T10:38:21Z
2022-06-19T08:39:40Z,42.805,6.029,13.3006,4.60036,2470.46,2022-6-19T10:41:24Z
2022-06-19T08:42:43Z,42.805,6.029,13.3001,4.60037,2470.483,2022-6-19T10:44:27Z
2022-06-19T08:45:46Z,42.805,6.029,13.3009,4.60036,2470.47,2022-6-19T10:47:30Z
2022-06-19T08:48:49Z,42.805,6.029,13.3003,4.60036,2470.46,2022-6-19T10:50:33Z
2022-06-19T08:51:52Z,42.805,6.029,13.3004,4.60041,2470.46,2022-6-19T10:53:36Z
2022-06-19T08:54:56Z,42.805,6.029,13.3008,4.60037,2470.46,2022-6-19T10:56:39Z
2022-06-19T08:57:59Z,42.805,6.029,13.3004,4.60037,2470.497,2022-6-19T10:59:43Z
2022-06-19T09:01:02Z,42.805,6.029,13.3004,4.60041,2470.46,2022-6-19T11:02:46Z
2022-06-19T09:04:05Z,42.805,6.029,13.3007,4.60039,2470.483,2022-6-19T11:05:49Z
2022-06-19T09:07:08Z,42.805,6.029,13.3006,4.60039,2470.483,2022-6-19T11:08:52Z
2022-06-19T09:10:11Z,42.805,6.029,13.3004,4.60038,2470.497,2022-6-19T11:11:55Z
2022-06-19T09:13:14Z,42.805,6.029,13.3007,4.60041,2470.497,2022-6-19T11:14:58Z
2022-06-19T09:16:17Z,42.805,6.029,13.3004,4.60039,2470.497,2022-6-19T11:18:01Z
2022-06-19T09:19:21Z,42.805,6.029,13.3008,4.60038,2470.483,2022-6-19T11:21:04Z
2022-06-19T09:22:24Z,42.805,6.029,13.3004,4.60049,2470.483,2022-6-19T11:24:08Z
2022-06-19T09:25:27Z,42.805,6.029,13.3014,4.60041,2470.483,2022-6-19T11:27:11Z
2022-06-19T09:28:30Z,42.805,6.029,13.3006,4.60044,2470.483,2022-6-19T11:30:14Z
2022-06-19T09:31:33Z,42.805,6.029,13.3025,4.60045,2470.52,2022-6-19T11:33:17Z
2022-06-19T09:34:36Z,42.805,6.029,13.3017,4.60041,2470.544,2022-6-19T11:36:20Z
2022-06-19T09:37:39Z,42.805,6.029,13.3040,4.60055,2470.497,2022-6-19T11:39:23Z
2022-06-19T09:40:43Z,42.805,6.029,13.3027,4.60060,2470.483,2022-6-19T11:42:26Z
2022-06-19T09:43:46Z,42.805,6.029,13.3009,4.60053,2470.53,2022-6-19T11:45:29Z
2022-06-19T09:46:49Z,42.805,6.029,13.3021,4.60046,2470.544,2022-6-19T11:48:33Z
2022-06-19T09:49:52Z,42.805,6.029,13.3024,4.60054,2470.497,2022-6-19T11:51:36Z
2022-06-19T09:52:55Z,42.805,6.029,13.3013,4.60043,2470.483,2022-6-19T11:54:39Z
2022-06-19T09:55:58Z,42.805,6.029,13.3007,4.60048,2470.483,2022-6-19T11:57:42Z
2022-06-19T09:59:01Z,42.805,6.029,13.3036,4.60061,2470.52,2022-6-19T12:00:45Z
2022-06-19T10:02:04Z,42.805,6.029,13.3024,4.60063,2470.544,2022-6-19T12:03:48Z
2022-06-19T10:05:08Z,42.805,6.029,13.3026,4.60085,2470.52,2022-6-19T12:06:51Z
2022-06-19T10:08:11Z,42.805,6.029,13.3029,4.60078,2470.52,2022-6-19T12:09:54Z
2022-06-19T10:11:14Z,42.805,6.029,13.3040,4.60094,2470.507,2022-6-19T12:12:58Z
2022-06-19T10:14:17Z,42.805,6.029,13.3030,4.60088,2470.553,2022-6-19T12:16:01Z
2022-06-19T10:17:20Z,42.805,6.029,13.3034,4.60107,2470.497,2022-6-19T12:19:04Z
2022-06-19T10:20:23Z,42.805,6.029,13.3040,4.60128,2470.52,2022-6-19T12:22:07Z
2022-06-19T10:23:26Z,42.805,6.029,13.3034,4.60101,2470.52,2022-6-19T12:25:10Z
2022-06-19T10:26:29Z,42.805,6.029,13.3031,4.60112,2470.507,2022-6-19T12:28:13Z
2022-06-19T10:29:33Z,42.805,6.029,13.3026,4.60095,2470.544,2022-6-19T12:31:16Z
2022-06-19T10:32:36Z,42.805,6.029,13.3044,4.60108,2470.52,2022-6-19T12:34:19Z
2022-06-19T10:35:39Z,42.805,6.029,13.3031,4.60105,2470.52,2022-6-19T12:37:23Z
2022-06-19T10:38:42Z,42.805,6.029,13.3024,4.60117,2470.507,2022-6-19T12:40:26Z
2022-06-19T10:41:45Z,42.805,6.029,13.3036,4.60090,2470.507,2022-6-19T12:43:29Z
2022-06-19T10:44:48Z,42.805,6.029,13.3018,4.60104,2470.507,2022-6-19T12:46:32Z
2022-06-19T10:47:51Z,42.805,6.029,13.3033,4.60107,2470.507,2022-6-19T12:49:35Z
2022-06-19T10:50:54Z,42.805,6.029,13.3016,4.60099,2470.53,2022-6-19T12:52:38Z
2022-06-19T10:53:58Z,42.805,6.029,13.3019,4.60108,2470.497,2022-6-19T12:55:41Z
2022-06-19T10:57:01Z,42.805,6.029,13.3019,4.60123,2470.483,2022-6-19T12:58:45Z
2022-06-19T11:00:04Z,42.805,6.029,13.3026,4.60106,2470.52,2022-6-19T13:01:48Z
2022-06-19T11:03:07Z,42.805,6.029,13.3036,4.60132,2470.52,2022-6-19T13:04:51Z
2022-06-19T11:06:10Z,42.805,6.029,13.3042,4.60102,2470.507,2022-6-19T13:07:54Z
2022-06-19T11:09:13Z,42.805,6.029,13.3026,4.60084,2470.507,2022-6-19T13:10:57Z
2022-06-19T11:12:16Z,42.805,6.029,13.3024,4.60129,2470.53,2022-6-19T13:14:00Z
2022-06-19T11:15:19Z,42.805,6.029,13.3019,4.60102,2470.483,2022-6-19T13:17:03Z
2022-06-19T11:18:23Z,42.805,6.029,13.3029,4.60114,2470.483,2022-6-19T13:20:06Z
2022-06-19T11:21:26Z,42.805,6.029,13.3030,4.60106,2470.483,2022-6-19T13:23:09Z
2022-06-19T11:24:29Z,42.805,6.029,13.3034,4.60113,2470.52,2022-6-19T13:26:13Z
2022-06-19T11:27:32Z,42.805,6.029,13.3021,4.60114,2470.46,2022-6-19T13:29:16Z
2022-06-19T11:30:35Z,42.805,6.029,13.3022,4.60112,2470.507,2022-6-19T13:32:19Z
2022-06-19T11:33:38Z,42.805,6.029,13.3035,4.60114,2470.507,2022-6-19T13:35:22Z
2022-06-19T11:36:41Z,42.805,6.029,13.3035,4.60140,2470.483,2022-6-19T13:38:25Z
2022-06-19T11:39:44Z,42.805,6.029,13.3019,4.60119,2470.497,2022-6-19T13:41:28Z
2022-06-19T11:42:48Z,42.805,6.029,13.3020,4.60114,2470.483,2022-6-19T13:44:31Z
2022-06-19T11:45:51Z,42.805,6.029,13.3034,4.60119,2470.483,2022-6-19T13:47:34Z
2022-06-19T11:48:54Z,42.805,6.029,13.3036,4.60102,2470.46,2022-6-19T13:50:38Z
2022-06-19T11:51:57Z,42.805,6.029,13.3038,4.60114,2470.52,2022-6-19T13:53:41Z
2022-06-19T11:55:00Z,42.805,6.029,13.3039,4.60162,2470.497,2022-6-19T13:56:44Z
2022-06-19T11:58:03Z,42.805,6.029,13.3029,4.60127,2470.483,2022-6-19T13:59:47Z
2022-06-19T12:01:06Z,42.805,6.029,13.3016,4.60129,2470.52,2022-6-19T14:02:50Z
2022-06-19T12:04:09Z,42.805,6.029,13.3025,4.60120,2470.507,2022-6-19T14:05:53Z
2022-06-19T12:07:13Z,42.805,6.029,13.3034,4.60116,2470.483,2022-6-19T14:08:56Z
2022-06-19T12:10:16Z,42.805,6.029,13.3028,4.60111,2470.46,2022-6-19T14:12:00Z
2022-06-19T12:13:19Z,42.805,6.029,13.3026,4.60103,2470.46,2022-6-19T14:15:03Z
2022-06-19T12:16:22Z,42.805,6.029,13.3026,4.60147,2470.497,2022-6-19T14:18:06Z
2022-06-19T12:19:25Z,42.805,6.029,13.3023,4.60125,2470.483,2022-6-19T14:21:09Z
2022-06-19T12:22:28Z,42.805,6.029,13.3032,4.60094,2470.497,2022-6-19T14:24:12Z
2022-06-19T12:25:31Z,42.805,6.029,13.3038,4.60132,2470.483,2022-6-19T14:27:15Z
2022-06-19T12:28:34Z,42.805,6.029,13.3056,4.60147,2470.46,2022-6-19T14:30:18Z
2022-06-19T12:31:38Z,42.805,6.029,13.3041,4.60149,2470.46,2022-6-19T14:33:21Z
2022-06-19T12:34:41Z,42.805,6.029,13.3035,4.60119,2470.45,2022-6-19T14:36:25Z
2022-06-19T12:37:44Z,42.805,6.029,13.3044,4.60104,2470.474,2022-6-19T14:39:28Z
2022-06-19T12:40:47Z,42.805,6.029,13.3032,4.60093,2470.497,2022-6-19T14:42:31Z
2022-06-19T12:43:50Z,42.805,6.029,13.3044,4.60104,2470.45,2022-6-19T14:45:34Z
2022-06-19T12:46:53Z,42.805,6.029,13.3036,4.60137,2470.46,2022-6-19T14:48:37Z
2022-06-19T12:49:56Z,42.805,6.029,13.3039,4.60130,2470.46,2022-6-19T14:51:40Z
2022-06-19T12:52:59Z,42.805,6.029,13.3022,4.60090,2470.474,2022-6-19T14:54:43Z
2022-06-19T12:56:03Z,42.805,6.029,13.3046,4.60069,2470.474,2022-6-19T14:57:46Z
2022-06-19T12:59:06Z,42.805,6.029,13.3045,4.60067,2470.474,2022-6-19T15:00:50Z
2022-06-19T13:02:09Z,42.805,6.029,13.3036,4.60067,2470.45,2022-6-19T15:03:53Z
2022-06-19T13:05:12Z,42.805,6.029,13.3042,4.60076,2470.437,2022-6-19T15:06:56Z
2022-06-19T13:08:15Z,42.805,6.029,13.3040,4.60072,2470.483,2022-6-19T15:09:59Z
2022-06-19T13:11:18Z,42.805,6.029,13.3038,4.60097,2470.483,2022-6-19T15:13:02Z
2022-06-19T13:14:21Z,42.805,6.029,13.3026,4.60086,2470.46,2022-6-19T15:16:05Z
2022-06-19T13:17:24Z,42.805,6.029,13.3039,4.60072,2470.497,2022-6-19T15:19:08Z
2022-06-19T13:20:28Z,42.805,6.029,13.3031,4.60094,2470.45,2022-6-19T15:22:11Z
2022-06-19T13:23:31Z,42.805,6.029,13.3053,4.60069,2470.437,2022-6-19T15:25:15Z
2022-06-19T13:26:34Z,42.805,6.029,13.3005,4.60046,2470.437,2022-6-19T15:28:18Z
2022-06-19T13:29:37Z,42.805,6.029,13.3013,4.60076,2470.507,2022-6-19T15:31:21Z
2022-06-19T13:32:40Z,42.805,6.029,13.3039,4.60062,2470.437,2022-6-19T15:34:24Z
2022-06-19T13:35:43Z,42.805,6.029,13.3025,4.60097,2470.45,2022-6-19T15:37:27Z
2022-06-19T13:38:46Z,42.805,6.029,13.3041,4.60076,2470.437,2022-6-19T15:40:30Z
2022-06-19T13:41:50Z,42.805,6.029,13.3029,4.60119,2470.427,2022-6-19T15:43:33Z
2022-06-19T13:44:53Z,42.805,6.029,13.3049,4.60058,2470.46,2022-6-19T15:46:36Z
2022-06-19T13:47:56Z,42.805,6.029,13.3055,4.60061,2470.437,2022-6-19T15:49:40Z
2022-06-19T13:50:59Z,42.805,6.029,13.3049,4.60059,2470.474,2022-6-19T15:52:43Z
2022-06-19T13:54:02Z,42.805,6.029,13.3046,4.60078,2470.437,2022-6-19T15:55:46Z
2022-06-19T13:57:05Z,42.805,6.029,13.3053,4.60059,2470.427,2022-6-19T15:58:49Z
2022-06-19T14:00:08Z,42.805,6.029,13.3080,4.60076,2470.437,2022-6-19T16:01:52Z
2022-06-19T14:03:11Z,42.805,6.029,13.3043,4.60066,2470.437,2022-6-19T16:04:55Z
2022-06-19T14:06:15Z,42.805,6.029,13.3017,4.60047,2470.437,2022-6-19T16:07:58Z
2022-06-19T14:09:18Z,42.805,6.029,13.3007,4.60057,2470.427,2022-6-19T16:11:02Z
2022-06-19T14:12:21Z,42.805,6.029,13.3007,4.60055,2470.46,2022-6-19T16:14:05Z
2022-06-19T14:15:24Z,42.805,6.029,13.3043,4.60077,2470.437,2022-6-19T16:17:08Z
2022-06-19T14:18:27Z,42.805,6.029,13.3027,4.60046,2470.46,2022-6-19T16:20:11Z
2022-06-19T14:21:30Z,42.805,6.029,13.3014,4.60049,2470.427,2022-6-19T16:23:14Z
2022-06-19T14:24:33Z,42.805,6.029,13.3010,4.60046,2470.437,2022-6-19T16:26:17Z
2022-06-19T14:27:36Z,42.805,6.029,13.3006,4.60045,2470.45,2022-6-19T16:29:20Z
2022-06-19T14:30:40Z,42.805,6.029,13.3022,4.60079,2470.437,2022-6-19T16:32:23Z
2022-06-19T14:33:43Z,42.805,6.029,13.3004,4.60049,2470.474,2022-6-19T16:35:27Z
2022-06-19T14:36:46Z,42.805,6.029,13.3009,4.60046,2470.45,2022-6-19T16:38:30Z
2022-06-19T14:39:49Z,42.805,6.029,13.3002,4.60057,2470.413,2022-6-19T16:41:33Z
2022-06-19T14:42:52Z,42.805,6.029,13.3014,4.60082,2470.437,2022-6-19T16:44:36Z
2022-06-19T14:45:55Z,42.805,6.029,13.3008,4.60046,2470.437,2022-6-19T16:47:39Z
2022-06-19T14:48:58Z,42.805,6.029,13.3006,4.60045,2470.437,2022-6-19T16:50:42Z
2022-06-19T14:52:01Z,42.805,6.029,13.3005,4.60046,2470.46,2022-6-19T16:53:45Z
2022-06-19T14:55:05Z,42.805,6.029,13.3000,4.60051,2470.46,2022-6-19T16:56:48Z
2022-06-19T14:58:08Z,42.805,6.029,13.3003,4.60039,2470.483,2022-6-19T16:59:52Z
2022-06-19T15:01:11Z,42.805,6.029,13.3004,4.60037,2470.437,2022-6-19T17:02:55Z
2022-06-19T15:04:14Z,42.805,6.029,13.3002,4.60044,2470.413,2022-6-19T17:05:58Z
2022-06-19T15:07:17Z,42.805,6.029,13.3004,4.60038,2470.413,2022-6-19T17:09:01Z
2022-06-19T15:10:20Z,42.805,6.029,13.3003,4.60041,2470.413,2022-6-19T17:12:04Z
2022-06-19T15:13:23Z,42.805,6.029,13.3002,4.60038,2470.39,2022-6-19T17:15:07Z